Location: ???????
(60.4438°N, 46.5168°E)
Time: 12:29:24
(UTC+00:00)

Daily predictions for brighter satellites

Satellite Brightness Start Highest point End
(mag) Time Altitude Azimuth Time Altitude Azimuth Time Altitude Azimuth
Cosmos 44 3.7 17:39:29 10° WNW 17:44:11 56° SW 17:49:08 10° SSE
CZ-2C R/B 3.8 17:42:08 10° NNE 17:46:49 89° E 17:51:23 10° SSW
USA 267 4.2 17:43:37 10° E 17:48:44 24° SE 17:53:50 10° S
COSMOS 2428 3.5 17:45:39 10° NW 17:51:14 48° NNE 17:56:47 10° ESE
NOSS 3-2 (A) 3.9 17:47:58 10° SSW 17:53:26 40° SE 17:59:42 10° ENE
OBJECT-B 3.5 17:51:58 10° SW 17:54:28 20° W 17:56:59 10° NW
Cosmos 614 Rocket 4.4 17:49:36 10° SW 17:54:48 70° NW 18:00:04 10° NNE
Meteor 1-20 Rocket 4.4 17:51:02 10° S 17:56:49 67° E 18:02:38 10° NNE
Cosmos 1602 4.0 17:55:03 10° S 17:58:51 50° E 18:02:42 10° NNE
Cosmos 1833 Rocket 2.8 17:53:23 10° SW 17:59:02 87° NW 18:04:44 10° NE
Cosmos 44 Rocket 3.6 17:54:09 10° WNW 17:59:05 72° NNE 18:04:07 10° ESE
Cosmos 1470 Rocket 3.5 17:55:01 10° S 17:59:23 72° E 18:03:45 10° NNE
Cosmos 2237 Rocket 3.5 17:56:08 10° NW 18:01:24 37° NNE 18:06:37 10° E
Cosmos 2344 4.2 17:53:54 10° WNW 18:01:56 77° N 18:12:35 10° E
Cosmos 2221 Rocket 4.3 17:57:57 10° N 18:02:14 43° ENE 18:06:33 10° SE
NOSS 3-2 (C) 4.1 17:57:38 10° S 18:02:52 33° ESE 18:08:45 10° ENE
Cosmos 540 Rocket 3.6 17:59:30 10° NW 18:04:43 81° WSW 18:09:54 10° SSE
Cosmos 1242 Rocket 3.9 18:02:06 10° N 18:05:18 28° ENE 18:08:31 10° ESE
Sich 1 4.3 18:01:53 10° SW 18:06:10 45° WNW 18:10:28 10° N
SPOT 5 2.7 18:01:55 10° SSE 18:06:16 84° ENE 18:10:47 10° NNW
Cosmos 1184 Rocket 3.0 18:04:54 10° SSW 18:08:12 76° WNW 18:11:32 10° NNE
Cosmos 2333 Rocket 2.6 18:04:02 10° NW 18:09:48 62° NE 18:15:31 10° ESE
Cosmos 1934 Rocket 4.3 18:03:34 10° SSW 18:09:58 77° WNW 18:16:22 10° NNE
Cosmos 1437 Rocket 3.0 18:06:21 10° NNW 18:10:09 65° WSW 18:13:54 10° S
SPOT 1/Viking Rocket 4.0 18:05:52 10° S 18:11:04 64° WSW 18:16:18 10° NNW
Cosmos 405 Rocket 2.6 18:09:22 10° S 18:13:04 67° ESE 18:16:51 10° NNE
SL-27 R/B 3.4 18:13:19 10° SSE 18:16:09 26° ESE 18:18:59 10° NE
USA 32 4.2 18:11:20 10° SSW 18:16:34 81° W 18:21:51 10° N
Cosmos 1515 4.1 18:13:56 10° NNW 18:17:45 62° W 18:21:32 10° S
Resurs 01 Rocket 3.6 18:14:12 10° SSW 18:17:58 27° W 18:21:46 10° NNW
Cosmos 1850 Rocket 4.3 18:13:59 10° S 18:19:00 46° ESE 18:24:01 10° NE
GP-B 3.8 18:15:51 10° N 18:20:14 55° W 18:24:34 10° SSW
ERBS 2.6 18:18:13 10° W 18:21:26 44° S 18:24:30 11° ESE
ERS-1 Rocket 3.2 18:16:50 10° S 18:21:52 71° WSW 18:26:55 10° NNW
Cosmos 1271 Rocket 4.2 18:18:44 10° N 18:21:56 25° ENE 18:25:09 10° ESE
Cosmos 841 Rocket 3.8 18:17:00 10° NW 18:22:11 63° WSW 18:27:22 10° SSE
Cosmos 676 Rocket 4.1 18:16:52 10° SSW 18:22:14 87° ESE 18:27:38 10° NNE
OPS 6432 4.4 18:19:49 10° SW 18:23:12 50° SE 18:26:05 10° ENE
Okean 1 4.4 18:21:26 10° NNW 18:25:18 43° W 18:29:08 10° SSW
USA 234 4.0 18:23:26 11° SE 18:29:19 40° SSW 18:35:26 10° WNW
ATLAS 3B R/B 3.6 18:28:32 10° SSE 18:33:39 24° ESE 18:38:50 10° ENE
CARTOSAT-1 4.1 18:30:18 10° S 18:34:33 55° WSW 18:38:50 10° NNW
Cosmos 1867 3.5 18:29:47 10° SW 18:35:13 73° SE 18:40:42 10° ENE
Okean 3 3.5 18:31:42 10° NNW 18:36:02 86° E 18:39:55 13° SSE
Meteor 2-4 Rocket 4.0 18:30:50 10° NNW 18:36:32 69° W 18:42:00 10° S
Cosmos 1933 Rocket 3.8 18:35:45 10° SSW 18:40:11 74° WNW 18:44:41 10° NNE
SL-4 R/B 3.1 18:40:13 10° SW 18:43:11 21° S 18:44:49 16° SE
Meteor 1-23 Rocket 4.5 18:38:32 10° NNW 18:44:22 66° ENE 18:49:21 14° SSE
Meteor 1-13 Rocket 4.2 18:39:12 10° NNW 18:44:47 86° WSW 18:49:51 13° SSE
CZ-2C R/B 4.5 18:40:58 10° N 18:45:32 33° NW 18:50:08 10° WSW
NOSS 0 Rocket 4.3 18:40:12 10° NW 18:46:26 65° NE 18:52:39 10° ESE
SL-16 R/B 3.5 18:41:47 10° NW 18:46:49 33° WSW 18:51:48 10° S
Cosmos 2219 Rocket 2.3 18:42:40 10° NW 18:48:24 82° NE 18:53:23 14° SE
Meteor 1-14 Rocket 4.4 18:43:11 10° SSW 18:49:06 88° ESE 18:55:09 10° NNE
Spot 4 4.3 18:45:23 14° SE 18:49:24 52° ENE 18:54:08 10° NNW
Iridium 4 Rocket 3.0 18:45:41 13° S 18:49:25 64° E 18:53:33 10° N
COSMOS 2487 4.2 18:48:31 15° ESE 18:49:34 16° ESE 18:51:49 10° ENE
Cosmos 1869 Rocket 3.6 18:46:56 10° S 18:51:21 71° E 18:55:51 10° NNE
Cosmos 1954 Rocket 4.5 18:46:43 10° SW 18:52:02 68° NW 18:57:22 10° NNE
USA 238 DEB 3.7 18:45:45 10° SW 18:52:24 66° SE 18:59:23 10° ENE
USA 238 3.7 18:45:52 10° SW 18:52:31 65° SE 18:59:30 10° ENE
Tsikada Rocket 4.1 18:46:46 10° NNW 18:53:11 74° ENE 18:58:35 15° SSE
Okean 1-7 4.3 18:50:22 10° NNW 18:54:22 37° W 18:58:19 10° SSW
Cosmos 2322 3.8 18:49:22 10° NW 18:55:04 76° SW 18:59:44 16° SSE
BREEZE-M DEB (TANK) 4.3 18:52:32 10° SW 18:55:59 28° S 19:04:43 10° ESE
Cosmos 1741 Rocket 4.0 18:51:16 10° SSW 18:56:31 73° ESE 19:01:50 10° NE
Cosmos 1674 Rocket 3.7 18:56:23 10° N 19:00:42 65° ENE 19:03:56 17° SSE
Lacrosse 5 4.1 19:01:09 10° WSW 19:03:03 12° SW 19:04:58 10° SSW
Cosmos 2082 Rocket 2.8 18:57:33 10° WSW 19:03:12 63° NW 19:08:51 10° NE
CENTAUR R/B 2.8 18:57:04 10° SSW 19:03:13 56° SE 19:10:33 10° ENE
Cosmos 1536 3.4 19:00:46 18° SSE 19:03:24 41° E 19:07:09 10° NNE
Cosmos 2322 Rocket 3.6 19:00:39 10° NW 19:05:33 30° WSW 19:10:26 10° SSW
Terra 2.5 19:01:13 11° S 19:05:42 49° W 19:10:22 10° NNW
Cosmos 2100 Rocket 4.0 19:01:28 10° S 19:07:36 87° ESE 19:13:49 10° NNE
Cosmos 2333 4.5 19:04:02 10° NW 19:09:47 65° WSW 19:14:16 17° SSE
Cosmos 1842 4.5 19:06:38 10° N 19:10:13 32° ENE 19:12:56 15° ESE
Cosmos 1238 Rocket 4.3 19:07:57 10° SW 19:10:32 26° WNW 19:13:16 10° N
Cosmos 2173 Rocket 4.0 19:08:56 10° S 19:15:06 90° SW 19:21:15 10° NNE
SL-16 R/B 3.4 19:09:56 10° NW 19:15:20 41° NNE 19:20:44 10° E
Cosmos 2360 Rocket 3.1 19:11:12 10° NW 19:16:28 40° WSW 19:20:54 14° S
Geosat 4.1 19:12:52 17° SSE 19:16:45 73° SW 19:21:48 10° NW
Okean 2 4.2 19:12:51 10° N 19:16:46 40° ENE 19:19:34 17° SE
ALOS 2 3.1 19:20:18 18° SE 19:23:25 53° ENE 19:27:43 10° N
Cosmos 1733 Rocket 3.3 19:20:26 19° S 19:23:29 55° E 19:27:50 10° NNE
FALCON 9 DEB 4.3 19:22:05 10° WSW 19:24:59 24° S 19:25:31 23° SSE
Cosmos 1725 Rocket 4.1 19:20:03 14° S 19:25:30 70° E 19:31:50 10° NNE
Cosmos 2084 Rocket 3.6 19:21:35 10° SW 19:25:41 49° SE 19:29:55 10° ENE
Cosmos 1500 3.7 19:25:11 10° SSW 19:28:52 57° WNW 19:32:36 10° N
SL-08 R/B 4.4 19:24:37 14° S 19:29:52 75° E 19:36:00 10° NNE
Cosmos 773 Rocket 4.3 19:25:22 10° NNW 19:30:30 63° NE 19:34:38 16° SE
Cosmos 1459 Rocket 4.2 19:24:22 10° SSW 19:30:43 77° WNW 19:37:09 10° NNE
SAR-Lupe-2 4.4 19:28:21 10° N 19:31:52 51° WNW 19:35:21 10° SW
USA 267 3.4 19:26:36 10° E 19:32:55 48° SSE 19:39:14 10° SW
MTI 3.6 19:30:26 10° NNE 19:33:33 70° ESE 19:35:15 24° S
Cosmos 1975 4.4 19:32:14 16° ESE 19:34:08 22° E 19:37:20 10° NE
Cosmos 2016 Rocket 4.1 19:28:46 12° S 19:34:46 88° E 19:41:13 10° NNE
COSMOS 2428 2.9 19:30:06 10° NW 19:35:48 65° WSW 19:39:52 19° SSE
Cosmos 1980 3.8 19:32:09 10° NW 19:37:52 79° NE 19:42:31 16° SE
Cosmos 1607 4.1 19:31:46 10° WNW 19:38:14 81° NNE 19:44:44 10° ESE
Cosmos 1356 3.3 19:37:15 19° SSW 19:39:34 90° WSW 19:43:02 10° NNE
Cosmos 1666 2.6 19:37:05 18° SSW 19:39:51 84° WNW 19:43:40 10° NNE
Cosmos 1242 Rocket 3.4 19:36:51 10° NNW 19:40:20 43° W 19:42:36 19° SSW
Cosmos 44 Rocket 3.9 19:35:49 10° WNW 19:40:32 45° SW 19:43:33 21° SSE
Cosmos 2297 Rocket 4.3 19:39:23 10° ESE 19:40:44 11° E 19:42:06 10° ENE
Cosmos 968 Rocket 4.2 19:38:04 20° SSE 19:40:55 36° ESE 19:45:35 10° NE
Cosmos 1833 Rocket 4.3 19:38:24 10° W 19:43:38 38° NNW 19:48:54 10° NE
NOSS 3-2 (A) 3.6 19:37:37 10° WSW 19:43:47 89° SSE 19:51:03 10° ENE
Cosmos 2237 Rocket 2.2 19:40:28 10° NW 19:46:12 83° NE 19:50:40 17° SE
Helios 1A 3.9 19:46:22 17° SE 19:49:19 43° ENE 19:53:20 10° N
CRYOSAT 2 4.4 19:44:24 10° N 19:49:19 84° W 19:52:58 18° S
SL-27 R/B 3.4 19:47:53 10° SW 19:51:06 44° NW 19:54:20 10° NNE
Cosmos 1378 3.5 19:47:50 10° NNW 19:51:33 58° W 19:53:40 23° S
NOSS 3-2 (C) 3.5 19:46:53 10° SW 19:53:01 81° SSE 20:00:12 10° ENE
Cosmos 1378 Rocket 3.9 19:49:02 10° NNW 19:53:27 61° W 19:56:17 21° S
Cosmos 2333 Rocket 2.8 19:48:32 10° NW 19:54:01 46° WSW 19:57:45 20° S
Cosmos 1743 3.0 19:53:16 25° SSE 19:55:17 54° E 19:59:07 10° NNE
Cosmos 1908 Rocket 4.0 19:53:16 23° SSE 19:55:40 48° E 19:59:53 10° NNE
Lacrosse 4 Rocket 1.9 19:53:40 23° S 19:55:48 40° SE 19:59:44 10° NE
ERBS 3.5 19:54:29 10° W 19:57:14 24° SSW 19:57:24 24° SSW
Cosmos 1271 Rocket 3.1 19:54:30 10° NNW 19:58:13 55° W 20:00:19 24° S
Cosmos 2061 Rocket 4.2 19:52:30 11° SSW 19:58:30 72° WNW 20:04:44 10° NNE
Meteor 1-11 Rocket 4.0 20:00:05 12° SSW 20:05:29 71° WNW 20:11:22 10° NNE
Cosmos 2233 Rocket 4.0 20:01:24 18° S 20:06:21 84° E 20:12:42 10° NNE
Cosmos 1975 Rocket 3.1 20:08:55 10° NNW 20:13:28 87° E 20:16:03 25° SSE
Cosmos 1464 Rocket 4.5 20:10:08 20° SSE 20:14:10 48° E 20:20:04 10° NNE
Thor Agena Rocket 3.5 20:09:04 10° NNE 20:14:11 73° ESE 20:17:38 21° S
Cosmos 1544 3.4 20:13:03 29° SSE 20:14:39 52° E 20:18:15 10° NNE
Cosmos 2344 4.2 20:08:12 10° WNW 20:16:47 72° SW 20:28:33 10° SE
Cosmos 1437 3.4 20:15:01 10° N 20:17:54 42° ENE 20:19:10 26° ESE
Nadezhda 4 Rocket 4.2 20:12:04 10° NNW 20:18:24 69° ENE 20:22:54 20° SSE
Cosmos 1867 4.2 20:13:39 10° W 20:19:05 60° NNW 20:24:31 10° ENE
Cosmos 1674 4.4 20:17:37 10° N 20:20:47 25° ENE 20:23:31 12° ESE
Cosmos 1680 Rocket 4.4 20:16:18 10° NNW 20:21:25 48° NE 20:26:28 10° ESE
SL-4 R/B 3.9 20:19:38 10° WSW 20:20:22 13° SW 20:20:22 13° SW
ATLAS 3B R/B 2.6 20:16:48 10° SW 20:23:19 66° SE 20:29:59 10° ENE
COSMOS 2487 2.4 20:21:59 21° SW 20:24:09 78° WNW 20:27:38 10° NNE
Cosmos 2227 Rocket 3.8 20:27:48 15° SE 20:30:23 20° ESE 20:34:21 10° ENE
Cosmos 2219 Rocket 3.3 20:27:00 10° NW 20:31:56 31° WSW 20:35:05 18° SSW
NOSS 0 Rocket 4.4 20:26:53 10° NW 20:32:50 48° WSW 20:36:37 22° S
MOS 1-B Rocket 4.1 20:28:44 10° NNE 20:34:28 68° WNW 20:39:23 14° SW
Cosmos 1707 2.8 20:31:03 10° NNW 20:35:00 74° ENE 20:37:01 27° SSE
Cosmos 1025 Rocket 3.2 20:32:48 10° N 20:37:06 66° ENE 20:39:34 24° SSE
Cosmos 1092 Rocket 4.3 20:31:38 10° N 20:37:53 63° ENE 20:42:32 18° SSE
Okean 2 Rocket 4.1 20:35:32 21° SE 20:37:53 35° E 20:41:59 10° NNE
Cosmos 1536 4.2 20:36:28 11° SW 20:39:55 33° WNW 20:43:35 10° N
SJ 16-02 3.7 20:42:06 10° ESE 20:43:20 11° E 20:44:34 10° ENE
USA 238 DEB 4.0 20:36:35 10° W 20:43:26 75° NNW 20:50:39 10° ENE
USA 238 4.0 20:36:42 10° W 20:43:33 75° NNW 20:50:46 10° ENE
Terra 4.4 20:43:17 10° W 20:44:39 11° WNW 20:46:00 10° WNW
Cosmos 2034 Rocket 4.3 20:41:53 21° SSE 20:46:00 57° E 20:52:14 10° NNE
Cosmos 724 4.4 20:40:12 10° WNW 20:46:11 81° NNE 20:52:17 10° ESE
Cosmos 1842 4.0 20:42:35 10° NNW 20:46:20 42° W 20:48:12 25° SSW
EO 1 Del DPAF 3.4 20:42:47 10° NNE 20:46:34 68° WNW 20:48:44 24° SW
DNEPR-1 R/B 4.5 20:41:18 10° WNW 20:47:23 49° SW 20:50:24 23° SSE
Cosmos 1072 Rocket 4.5 20:43:36 22° S 20:47:40 77° E 20:53:49 10° NNE
MINOTAUR 4 R/B 4.3 20:46:23 26° SE 20:48:12 64° ENE 20:51:45 10° NNW
Cosmos 2082 Rocket 4.1 20:43:13 10° W 20:48:17 32° NNW 20:53:21 10° NE
Cosmos 1833 4.3 20:42:49 10° SW 20:48:30 79° NW 20:54:14 10° NE
Cosmos 1626 4.1 20:47:37 10° N 20:50:41 23° ENE 20:53:44 10° ESE
Cosmos 1503 Rocket 4.1 20:48:42 22° SSW 20:52:14 72° ESE 20:57:36 10° NE
Okean 2 4.4 20:49:48 10° NNW 20:53:34 35° W 20:55:39 21° SW
CENTAUR R/B 3.0 20:47:07 10° WSW 20:53:49 80° NNW 21:01:48 10° ENE
Cosmos 923 Rocket 4.1 20:48:54 10° NNW 20:54:18 80° NE 20:58:30 17° SE
Sich 1 Rocket 3.7 20:53:36 27° S 20:55:54 65° E 21:00:16 10° NNE
Cosmos 1486 Rocket 4.1 20:53:33 15° SW 20:57:53 76° NW 21:03:08 10° NNE
YAOGAN 11 4.3 20:56:23 26° S 20:58:57 70° WSW 21:03:32 10° NNW
Resurs 1-4 Rocket 4.3 20:56:03 10° NE 20:58:58 15° E 21:01:53 10° ESE
ALOS 2 3.8 20:57:41 20° SW 21:00:00 32° W 21:03:58 10° NNW
SL-16 R/B 2.2 20:54:16 10° NW 21:00:00 82° SW 21:04:29 17° SSE
Cosmos 2084 Rocket 3.7 21:00:49 10° WSW 21:05:07 75° NNW 21:09:33 10° ENE
Cosmos 1975 3.1 21:07:59 24° SSW 21:10:16 63° WNW 21:14:20 10° N
Cosmos 2151 Rocket 4.2 21:08:03 24° SSE 21:10:24 46° E 21:14:38 10° NNE
SL-16 R/B 3.2 21:08:33 10° SE 21:14:36 54° ENE 21:20:40 10° NNW
Cosmos 1536 Rocket 3.5 21:11:50 10° NNW 21:16:11 76° WSW 21:18:31 27° S
USA 267 3.2 21:10:03 10° E 21:16:35 67° S 21:23:07 10° WSW
COSMOS 2428 4.5 21:15:18 10° WNW 21:19:07 18° W 21:21:52 13° SW
PSLV R/B 4.1 21:16:39 10° NNE 21:21:16 56° ESE 21:24:00 24° S
Cosmos 968 Rocket 3.8 21:18:04 13° SW 21:22:31 62° NW 21:27:40 10° NNE
Cosmos 2297 Rocket 2.8 21:20:13 22° S 21:23:23 43° ESE 21:28:42 10° NE
Helios 1A 3.8 21:22:59 24° SSW 21:24:57 37° W 21:28:56 10° NNW
Cosmos 1607 4.4 21:19:11 10° WNW 21:25:17 46° SW 21:29:33 20° SSE
Meteor 2-9 Rocket 4.4 21:21:24 20° SSW 21:25:24 72° WNW 21:31:14 10° NNE
Cosmos 1782 Rocket 4.0 21:23:22 21° SW 21:26:04 54° WNW 21:30:20 10° N
KORONAS-FOTON 3.8 21:23:19 10° NNW 21:27:08 83° ENE 21:29:11 26° SSE
In-Cosmos 22 4.3 21:22:19 10° NNW 21:27:51 62° W 21:31:14 23° S
TIMED 4.5 21:25:03 10° NW 21:29:28 77° WSW 21:32:17 22° SSE
Cosmos 2237 Rocket 3.2 21:24:56 10° NW 21:29:49 30° WSW 21:32:28 21° SSW
Meteor 1-24 Rocket 4.0 21:24:30 10° NNW 21:29:59 62° ENE 21:34:39 13° SSE
Cosmos 2026 Rocket 3.9 21:26:01 10° NNW 21:32:09 84° WSW 21:36:35 20° S
Lacrosse 4 Rocket 2.0 21:30:16 10° WSW 21:34:26 57° NNW 21:38:32 10° NE
Cosmos 2219 3.5 21:31:18 23° S 21:34:41 54° ESE 21:40:10 10° NE
NOSS 3-2 (A) 4.1 21:28:37 10° W 21:35:06 70° N 21:42:43 10° E
Iridium 51 4.3 21:31:09 10° N 21:35:24 87° W 21:37:28 27° S
Cosmos 2333 Rocket 4.3 21:34:49 10° WNW 21:36:56 12° W 21:39:03 10° WSW
Cosmos 1603 3.9 21:34:37 10° NW 21:40:25 75° NE 21:46:10 10° SE
NOSS 3-2 (C) 4.1 21:37:49 10° W 21:44:16 70° N 21:51:50 10° E
Timation 2 Rocket 3.9 21:41:08 20° SSW 21:45:32 75° SE 21:51:32 10° NE
Cosmos 2112 Rocket 4.0 21:42:56 10° NW 21:48:10 69° WSW 21:52:04 18° SSE
Cosmos 158 Rocket 4.2 21:44:45 10° NW 21:50:03 61° WSW 21:53:51 19° S
Meteor 1-12 Rocket 4.4 21:45:54 21° SSW 21:50:05 85° WNW 21:56:10 10° NNE
Cosmos 1437 4.3 21:48:20 10° NW 21:50:35 20° W 21:51:12 19° WSW
Cosmos 1634 Rocket 4.1 21:50:33 20° S 21:55:01 76° E 22:01:14 10° NNE
Cosmos 1674 2.9 21:52:54 10° NNW 21:56:34 52° W 21:58:19 27° SSW
Cosmos 1300 Rocket 3.8 21:57:17 23° SSW 21:59:52 62° WNW 22:04:12 10° N
Cosmos 1943 3.3 21:54:35 10° NW 22:00:16 83° NE 22:05:55 10° SE
Meteor 2-5 Rocket 3.7 21:56:09 10° NNW 22:01:48 74° WSW 22:05:56 18° S
CZ-2D R/B 3.3 21:57:20 10° NNE 22:02:23 36° E 22:06:57 12° SSE
Cosmos 1867 4.4 21:57:56 10° WNW 22:03:20 56° N 22:08:45 10° E
Cosmos 1680 Rocket 3.8 21:58:35 10° NW 22:03:39 51° WSW 22:07:04 20° S
Meteor 2-19 Rocket 4.5 21:59:15 10° NNW 22:05:28 86° ENE 22:10:58 14° SSE
Helios 1B rocket 2.4 22:02:08 10° NNE 22:06:15 85° ESE 22:08:43 24° SSW
MOZ.5/SAFIR/RUBIN 5/SL-8 3.8 22:03:34 19° S 22:07:02 77° WSW 22:11:48 10° NNW
Cosmos 1766 3.5 22:10:01 22° S 22:12:21 61° E 22:16:12 10° NNE
Cosmos 2227 Rocket 2.3 22:09:36 20° SSW 22:13:34 70° ESE 22:19:14 10° NE
ATLAS 3B R/B 2.9 22:07:28 10° W 22:14:07 72° NNW 22:20:56 10° ENE
Meteor 1-29 3.0 22:11:56 10° NNE 22:15:25 72° ESE 22:17:19 25° S
Okean 2 Rocket 3.8 22:12:54 19° SW 22:15:53 46° WNW 22:20:18 10° N
Cosmos 1777 Rocket 4.1 22:12:29 19° SW 22:16:24 80° NW 22:21:45 10° NNE
Okean 1 Rocket 3.0 22:14:30 22° S 22:17:17 85° ESE 22:21:43 10° NNE
CZ-4 R/B 4.1 22:15:45 10° NNE 22:20:43 68° WNW 22:24:20 19° SW
SJ 16-02 1.8 22:18:08 20° S 22:20:57 53° ESE 22:25:16 10° NE
Cosmos 1733 3.4 22:20:05 21° S 22:22:30 66° E 22:26:22 10° NNE
Cosmos 2266 Rocket 4.1 22:17:37 10° NNW 22:24:03 85° ENE 22:30:21 10° SSE
Cosmos 1626 2.3 22:22:34 10° NNW 22:26:15 57° W 22:28:26 22° S
Cosmos 1470 4.1 22:23:20 12° SSE 22:26:34 35° E 22:30:14 10° NNE
NOSS 8 (A) 4.0 22:25:25 21° WSW 22:27:15 82° SSE 22:30:28 10° ENE
Okean 1-7 Rocket 3.5 22:24:31 10° NNW 22:28:59 83° W 22:32:39 15° S
UNK 3.8 22:25:25 16° S 22:29:10 71° WSW 22:33:52 10° NNW
Landsat 4 4.5 22:25:44 10° N 22:29:21 43° WNW 22:31:50 18° SW
Cosmos 2082 Rocket 4.3 22:28:56 10° NW 22:33:54 30° N 22:38:51 10° ENE
USA 238 DEB 4.1 22:28:00 10° WNW 22:34:58 74° NNE 22:42:18 10° E
Cosmos 1805 3.2 22:32:35 22° SSW 22:35:03 75° WNW 22:38:58 10° NNE
USA 238 4.1 22:28:06 10° WNW 22:35:05 74° NNE 22:42:25 10° E
SL-19 R/B 4.4 22:29:56 10° NNE 22:35:57 79° ESE 22:40:28 17° SSW
Cosmos 1626 Rocket 3.8 22:33:36 10° N 22:37:57 67° ENE 22:42:15 10° SSE
Cosmos 2082 3.8 22:34:49 18° SSW 22:39:00 66° ESE 22:44:36 10° NE
Resurs 1-4 Rocket 2.5 22:34:43 10° NNE 22:39:58 59° ESE 22:44:27 14° S
SL-16 R/B 3.4 22:38:57 10° NW 22:43:26 24° WSW 22:46:18 16° SW
Cosmos 2084 Rocket 3.9 22:40:36 10° WNW 22:44:56 66° N 22:49:23 10° E
CENTAUR R/B 3.3 22:38:03 10° WNW 22:45:10 72° N 22:53:29 10° E
Cosmos 1455 Rocket 3.5 22:41:31 14° S 22:45:12 59° E 22:49:37 10° NNE
SL-14 R/B 3.8 22:44:27 10° NNW 22:48:09 40° W 22:50:32 19° SSW
Cosmos 1892 Rocket 4.0 22:46:08 10° NNW 22:50:25 47° W 22:53:36 17° SSW
Cosmos 2098 Rocket 3.8 22:48:42 10° NNW 22:53:41 66° W 22:59:48 11° S
Cosmos 2263 Rocket 3.4 22:49:34 10° S 22:54:26 32° ESE 22:59:20 10° NE
SL-16 R/B 2.9 22:52:56 13° S 22:58:21 49° W 23:04:26 10° NNW
Cosmos 1655 Rocket 4.3 22:53:20 10° NNW 22:59:26 53° W 23:04:50 13° SSW
Cosmos 1758 Rocket 4.4 22:55:45 10° N 22:59:59 50° ENE 23:04:12 10° SE
USA 267 3.3 22:53:38 10° ESE 23:00:07 61° SSW 23:06:37 10° W
CZ-4C R/B 3.7 22:58:24 18° SSW 23:00:40 39° W 23:04:12 10° NNW
NOSS 3-1 (C) 4.0 22:57:24 15° SSW 23:01:58 46° SE 23:08:24 10° ENE
Meteor 1-21 Rocket 4.2 23:00:48 10° NNW 23:06:24 85° WSW 23:11:57 10° SSE
Uosat 12 SS-18 rocket 4.1 23:02:10 12° WSW 23:06:31 86° NNW 23:10:51 10° ENE
Cosmos 2297 Rocket 2.5 23:02:01 12° WSW 23:07:19 64° NW 23:12:59 10° NE
AQUA 4.1 23:03:05 10° NNE 23:07:52 67° ESE 23:12:22 11° S
Cosmos 1048 Rocket 3.9 23:03:55 10° NW 23:09:05 77° WSW 23:14:15 10° SSE
Meteor 1-24 Rocket 4.5 23:07:59 10° NNW 23:12:49 33° W 23:16:48 14° SSW
ADEOS II 2.8 23:08:37 10° NNE 23:13:46 51° E 23:18:53 10° S
Lacrosse 4 Rocket 3.2 23:10:03 10° WNW 23:13:48 30° N 23:17:28 10° NE
Cosmos 1833 Rocket 4.3 23:09:01 10° NW 23:14:20 40° NNE 23:19:39 10° E
Cosmos 1461 3.2 23:13:38 15° SW 23:17:21 68° SE 23:22:02 10° ENE
Meteor 1-28 Rocket 3.4 23:14:05 10° SSE 23:17:53 77° ENE 23:21:44 10° NNW
Cosmos 2219 3.8 23:13:27 10° WSW 23:18:58 53° NW 23:24:31 10° NE
Cosmos 1825 Rocket 4.2 23:14:52 10° N 23:19:11 58° ENE 23:23:27 10° SSE
H-2A R/B 3.3 23:17:01 10° SE 23:20:54 43° ENE 23:24:50 10° N
Cosmos 1603 4.4 23:19:04 10° NW 23:24:13 35° WSW 23:29:20 10° S
GEOS 3 Rocket 4.3 23:20:42 10° ENE 23:25:56 47° SE 23:30:53 11° SSW
Cosmos 2279 Rocket 4.4 23:20:54 13° SW 23:26:24 52° WNW 23:32:30 10° N
NOSS 3-2 (A) 4.0 23:19:37 10° WNW 23:26:31 88° NNE 23:34:32 10° ESE
Cosmos 1269 Rocket 4.3 23:22:41 10° NNW 23:28:02 75° NE 23:33:20 10° SE
Cosmos 1937 Rocket 3.6 23:24:35 12° SSW 23:29:31 79° ESE 23:34:51 10° NE
Cosmos 1953 Rocket 4.5 23:25:23 10° N 23:29:50 54° ENE 23:34:13 10° SSE
Cosmos 1726 2.4 23:27:53 10° S 23:31:32 67° E 23:35:11 10° NNE
Cosmos 1544 Rocket 3.6 23:28:26 11° SSW 23:32:43 81° WNW 23:37:13 10° NNE
CZ-4B R/B 3.5 23:27:59 10° NNE 23:32:47 77° ESE 23:37:33 10° SSW
Cosmos 990 Rocket 4.0 23:29:02 12° SW 23:33:49 78° NW 23:39:01 10° NNE
NOSS 3-2 (C) 4.0 23:28:56 10° WNW 23:35:47 82° NNE 23:43:46 10° ESE
Meteor 2-16 Rocket 4.5 23:29:53 10° NNW 23:36:05 81° WSW 23:42:14 10° S
Meteor 2-10 4.4 23:31:20 10° S 23:36:56 75° ESE 23:42:42 10° NNE
ERS-2 3.4 23:34:21 10° SE 23:37:51 44° ENE 23:41:22 10° N
Meteor 2-21 Rocket 4.5 23:32:00 10° NNW 23:38:02 70° W 23:44:04 10° S
Landsat 5 4.3 23:34:35 10° SE 23:38:34 54° ENE 23:42:45 10° NNW
USA 229 DEB 4.0 23:32:46 11° SW 23:39:02 61° SE 23:45:58 10° ENE
USA 229 4.0 23:32:52 11° SW 23:39:06 61° SE 23:46:02 10° ENE
CBERS-1 4.2 23:34:27 10° NNE 23:39:37 78° ESE 23:44:45 10° SSW
Cosmos 1758 3.4 23:36:38 11° SSW 23:40:28 68° WNW 23:44:29 10° N
Helios 1B rocket 4.2 23:37:58 10° N 23:41:07 22° NW 23:44:15 10° WSW
COBE Rocket 4.4 23:36:50 10° SSW 23:41:10 38° W 23:45:33 10° NNW
Cosmos 1340 Rocket 2.9 23:37:29 11° SSW 23:41:11 66° WNW 23:45:08 10° NNE
CZ-2D R/B 2.4 23:37:21 10° NNE 23:42:48 63° WNW 23:48:12 10° SW
ARIANE 5 R/B 3.4 23:38:32 10° NNE 23:43:39 50° E 23:48:45 10° S
Cosmos 1943 4.0 23:39:02 10° NW 23:43:52 30° WSW 23:48:41 10° SSW
Cosmos 1898 Rocket 3.6 23:39:48 11° SW 23:44:51 72° NW 23:50:05 10° NNE
Cosmos 1602 Rocket 3.9 23:41:35 10° NNW 23:45:47 46° W 23:49:56 10° SSW
Cosmos 1703 3.3 23:42:35 10° NNW 23:46:34 69° W 23:50:31 10° S
Cosmos 1867 3.6 23:41:50 10° WNW 23:47:21 87° SW 23:52:49 10° SE
SL-08 R/B 3.5 23:44:23 10° S 23:49:16 59° WSW 23:54:10 10° NNW
NOSS 3-1 (A) 3.9 23:44:35 10° SSW 23:50:14 55° SE 23:56:55 10° ENE
